Simultaneous Nadir Overpasses (SNOs) Predictions

Prediction of SNOs between GOES-17 and FY3D Satellite Orbit:

Table of predicted SNOs for the next 14.0 days since TLE Epoch: 9/28/2024
Index Date Time (GOES-17) GOES-17 Lat,Lon FY3D Lat,Lon Distance(km) Time Diff (sec)
1 09/28/2024 09:36:13 -0.02,-104.70 -0.07,-104.34 40.43 80
2 09/30/2024 21:39:42 0.01,-104.70 -0.07,-105.14 49.24 80
3 10/01/2024 21:23:43 0.01,-104.71 0.94,-100.61 466.92 80
4 10/03/2024 09:45:39 -0.01,-104.72 0.28,-105.87 132.17 80
5 10/04/2024 09:24:22 -0.00,-104.72 -0.79,-101.36 383.63 80
6 10/05/2024 21:46:27 -0.01,-104.71 -0.43,-106.66 221.83 80
7 10/06/2024 21:30:29 -0.02,-104.72 0.59,-102.14 294.37 80
8 10/08/2024 09:52:25 0.02,-104.73 0.61,-107.41 304.36 80
9 10/09/2024 09:31:07 0.03,-104.73 -0.42,-102.89 211.05 80
10 10/10/2024 21:53:11 -0.03,-104.71 -0.82,-108.18 395.71 80
11 10/11/2024 21:37:12 -0.03,-104.71 0.22,-103.66 120.03 80
